| time (UTC) | temp F | wind direction | speed knots | gust knots | rain 1hr in | rain 24hr in | rain mn in | humidity % | barometer mb |
| 20260505200029 | 84 | 169 | 2.6 | 10.4 | 0.00 | 0.00 | 0.00 | 75 | 1010.2 |
| 20260505194529 | 84 | 261 | 2.6 | 7.8 | 0.00 | 0.00 | 0.00 | 74 | 1010.2 |
| 20260505193031 | 84 | 142 | 2.6 | 8.7 | 0.00 | 0.00 | 0.00 | 76 | 1010.3 |
| 20260505191529 | 83 | 164 | 2.6 | 9.6 | 0.00 | 0.00 | 0.00 | 77 | 1010.4 |
| 20260505190029 | 82 | 223 | 2.6 | 10.4 | 0.00 | 0.00 | 0.00 | 78 | 1010.8 |
| 20260505184530 | 82 | 203 | 5.2 | 9.6 | 0.00 | 0.00 | 0.00 | 78 | 1010.9 |
| 20260505183035 | 82 | 147 | 1.7 | 10.4 | 0.00 | 0.00 | 0.00 | 78 | 1010.9 |
| 20260505181529 | 82 | 179 | 1.7 | 9.6 | 0.00 | 0.00 | 0.00 | 79 | 1011.0 |
| 20260505180043 | 82 | 179 | 1.7 | 6.1 | 0.00 | 0.00 | 0.00 | 80 | 1011.3 |
| 20260505174532 | 81 | 184 | 1.7 | 8.7 | 0.00 | 0.00 | 0.00 | 80 | 1011.3 |
| 20260505173029 | 81 | 201 | 2.6 | 11.3 | 0.00 | 0.00 | 0.00 | 80 | 1011.5 |
| 20260505171531 | 80 | 144 | 1.7 | 9.6 | 0.00 | 0.00 | 0.00 | 80 | 1011.4 |
| 20260505170028 | 80 | 219 | 1.7 | 7.8 | 0.00 | 0.00 | 0.00 | 81 | 1011.7 |
| 20260505164528 | 80 | 180 | 2.6 | 8.7 | 0.00 | 0.00 | 0.00 | 81 | 1011.7 |
| 20260505163029 | 79 | 172 | 2.6 | 8.7 | 0.00 | 0.00 | 0.00 | 81 | 1011.6 |
| 20260505161530 | 79 | 171 | 2.6 | 13.0 | 0.00 | 0.00 | 0.00 | 81 | 1011.5 |
| 20260505153028 | 79 | 0 | 2.6 | 13.9 | 0.00 | 0.00 | 0.00 | 82 | 1011.4 |
| 20260505151528 | 78 | 0 | 0.9 | 7.8 | 0.00 | 0.00 | 0.00 | 82 | 1011.2 |
| 20260505124532 | 74 | 115 | 0.9 | 6.1 | 0.00 | 0.00 | 0.00 | 86 | 1010.8 |
| 20260505123035 | 74 | 157 | 0.0 | 6.1 | 0.00 | 0.00 | 0.00 | 87 | 1010.7 |
| 20260505121530 | 74 | 171 | 1.7 | 6.1 | 0.00 | 0.00 | 0.00 | 87 | 1010.4 |
| 20260505120030 | 74 | 119 | 0.9 | 7.8 | 0.00 | 0.00 | 0.00 | 87 | 1010.3 |
| 20260505114618 | 74 | 0 | 1.7 | 5.2 | 0.00 | 0.00 | 0.00 | 87 | 1010.7 |
| 20260505114529 | 74 | 0 | 1.7 | 5.2 | 0.00 | 0.00 | 0.00 | 87 | 1010.7 |
| 20260505113028 | 74 | 223 | 2.6 | 7.8 | 0.00 | 0.00 | 0.00 | 86 | 1010.5 |
| 20260505111528 | 74 | 171 | 0.9 | 7.0 | 0.00 | 0.00 | 0.00 | 86 | 1010.4 |
| 20260505101548 | 73 | 194 | 0.9 | 6.1 | 0.00 | 0.00 | 0.00 | 86 | 1010.5 |
| 20260505100053 | 73 | 0 | 0.9 | 6.1 | 0.00 | 0.00 | 0.00 | 86 | 1010.6 |
| 20260505094532 | 72 | 120 | 0.9 | 7.0 | 0.00 | 0.00 | 0.00 | 86 | 1010.7 |
| 20260505093028 | 73 | 0 | 1.7 | 7.0 | 0.00 | 0.00 | 0.00 | 86 | 1010.7 |
| 20260505091528 | 72 | 161 | 0.9 | 7.0 | 0.00 | 0.00 | 0.00 | 86 | 1010.9 |
| 20260505090029 | 72 | 155 | 0.9 | 4.3 | 0.00 | 0.00 | 0.00 | 86 | 1011.1 |
| 20260505084529 | 72 | 140 | 0.9 | 5.2 | 0.00 | 0.00 | 0.00 | 86 | 1011.0 |
| 20260505083028 | 72 | 163 | 0.9 | 6.1 | 0.00 | 0.00 | 0.00 | 85 | 1011.0 |
| 20260505081528 | 72 | 116 | 0.9 | 7.0 | 0.00 | 0.00 | 0.00 | 85 | 1011.4 |
| 20260505080028 | 72 | 190 | 0.9 | 7.0 | 0.00 | 0.00 | 0.00 | 85 | 1011.3 |
| 20260505074531 | 72 | 174 | 1.7 | 7.0 | 0.00 | 0.00 | 0.00 | 85 | 1011.5 |
| 20260505073037 | 72 | 0 | 1.7 | 6.1 | 0.00 | 0.00 | 0.00 | 85 | 1011.6 |
| 20260505071530 | 72 | 145 | 1.7 | 7.0 | 0.00 | 0.00 | 0.00 | 84 | 1011.8 |
| 20260505070030 | 72 | 134 | 1.7 | 7.8 | 0.00 | 0.00 | 0.00 | 84 | 1011.9 |
| 20260505064527 | 72 | 171 | 0.9 | 7.8 | 0.00 | 0.00 | 0.00 | 84 | 1012.1 |
| 20260505063030 | 72 | 119 | 1.7 | 8.7 | 0.00 | 0.00 | 0.00 | 83 | 1012.3 |
| 20260505061537 | 72 | 161 | 1.7 | 6.1 | 0.00 | 0.00 | 0.00 | 83 | 1012.7 |
| 20260505060030 | 72 | 0 | 0.9 | 7.8 | 0.00 | 0.00 | 0.00 | 83 | 1012.6 |
| 20260505054529 | 72 | 148 | 0.9 | 7.0 | 0.00 | 0.00 | 0.00 | 82 | 1012.6 |
| 20260505053038 | 72 | 192 | 1.7 | 7.0 | 0.00 | 0.00 | 0.00 | 82 | 1012.7 |
| 20260505051538 | 72 | 148 | 0.9 | 6.1 | 0.00 | 0.00 | 0.00 | 82 | 1012.6 |
| 20260505041528 | 73 | 0 | 1.7 | 6.1 | 0.00 | 0.00 | 0.00 | 79 | 1012.9 |
| 20260505040029 | 73 | 182 | 1.7 | 7.8 | 0.00 | 0.00 | 0.00 | 79 | 1013.2 |
| 20260505034532 | 73 | 97 | 1.7 | 9.6 | 0.00 | 0.00 | 0.00 | 78 | 1013.4 |
| 20260505033028 | 74 | 0 | 1.7 | 7.8 | 0.00 | 0.00 | 0.00 | 77 | 1013.3 |
| 20260505031537 | 74 | 171 | 2.6 | 7.8 | 0.00 | 0.00 | 0.00 | 77 | 1013.2 |
| 20260505030030 | 74 | 134 | 2.6 | 8.7 | 0.00 | 0.00 | 0.00 | 77 | 1013.1 |
| 20260505024527 | 74 | 246 | 2.6 | 7.8 | 0.00 | 0.00 | 0.00 | 76 | 1013.1 |
| 20260505023027 | 74 | 143 | 1.7 | 8.7 | 0.00 | 0.00 | 0.00 | 76 | 1013.1 |
| 20260505021535 | 74 | 122 | 1.7 | 8.7 | 0.00 | 0.00 | 0.00 | 76 | 1013.0 |
| 20260505020036 | 74 | 141 | 2.6 | 11.3 | 0.00 | 0.00 | 0.00 | 75 | 1013.0 |
| 20260505014528 | 75 | 139 | 3.5 | 9.6 | 0.00 | 0.00 | 0.00 | 75 | 1012.8 |
| 20260505013031 | 75 | 123 | 2.6 | 7.8 | 0.00 | 0.00 | 0.00 | 74 | 1012.5 |
| 20260505011535 | 75 | 126 | 2.6 | 11.3 | 0.00 | 0.00 | 0.00 | 73 | 1012.7 |
| 20260505010050 | 76 | 89 | 3.5 | 9.6 | 0.00 | 0.00 | 0.00 | 73 | 1012.5 |
| 20260505004530 | 76 | 148 | 3.5 | 11.3 | 0.00 | 0.00 | 0.00 | 72 | 1012.3 |
| 20260505003032 | 77 | 173 | 2.6 | 8.7 | 0.00 | 0.00 | 0.00 | 71 | 1012.4 |
| 20260505001528 | 77 | 148 | 3.5 | 8.7 | 0.00 | 0.00 | 0.00 | 70 | 1012.3 |
| 20260505000041 | 78 | 103 | 3.5 | 7.0 | 0.00 | 0.00 | 0.00 | 70 | 1012.4 |
| 20260504234529 | 78 | 105 | 3.5 | 9.6 | 0.00 | 0.00 | 0.00 | 69 | 1012.6 |
| 20260504233031 | 78 | 220 | 2.6 | 11.3 | 0.00 | 0.00 | 0.00 | 69 | 1012.5 |
| 20260504231527 | 78 | 112 | 4.3 | 13.0 | 0.00 | 0.00 | 0.00 | 68 | 1012.8 |
| 20260504230039 | 78 | 131 | 4.3 | 11.3 | 0.00 | 0.00 | 0.00 | 68 | 1012.9 |
| 20260504224530 | 79 | 175 | 4.3 | 8.7 | 0.00 | 0.00 | 0.00 | 67 | 1013.1 |
| 20260504223029 | 79 | 111 | 2.6 | 9.6 | 0.00 | 0.00 | 0.00 | 67 | 1013.1 |
| 20260504221542 | 79 | 122 | 1.7 | 9.6 | 0.00 | 0.00 | 0.00 | 66 | 1013.3 |
| 20260504220033 | 80 | 155 | 2.6 | 7.8 | 0.00 | 0.00 | 0.00 | 64 | 1013.4 |
| 20260504214528 | 81 | 162 | 3.5 | 12.2 | 0.00 | 0.00 | 0.00 | 63 | 1013.4 |
| 20260504213033 | 81 | 167 | 2.6 | 12.2 | 0.00 | 0.00 | 0.00 | 61 | 1013.5 |
| 20260504211533 | 82 | 112 | 2.6 | 10.4 | 0.00 | 0.00 | 0.00 | 60 | 1013.8 |
| 20260504210031 | 83 | 97 | 2.6 | 11.3 | 0.00 | 0.00 | 0.00 | 58 | 1013.8 |
| 20260504204531 | 83 | 82 | 2.6 | 9.6 | 0.00 | 0.00 | 0.00 | 59 | 1014.0 |
| 20260504203043 | 82 | 163 | 1.7 | 9.6 | 0.00 | 0.00 | 0.00 | 58 | 1014.2 |
| 20260504201530 | 83 | 245 | 2.6 | 8.7 | 0.00 | 0.00 | 0.00 | 57 | 1014.5 |